Find Starlink 31855

NORAD ID: 59838 Int'l Des: 2024-097 Owner: SPXS Country: US Constellation: starlink operational
LEOCIRCULAR

Live Position

Loading 3D Globe...

About Starlink 31855

Description loading...

Upcoming Passes

Passes for default location (London). Set your location on the main map for personalized predictions.

Altitude History

Loading altitude history...

Two-Line Element Set

1 59838U 24097D 26125.86155498 .00030315 00000-0 11054-2 0 9992
2 59838 43.0021 311.2060 0001916 257.9667 102.0970 15.27616377110665
Epoch: May 5, 2026 • Age: 6 hours

Current Status

Altitude 486.5 km
Velocity 7.62 km/s
Sub-Earth Point -19.95°S, 105.79°W
Launch Date May 23, 2024
Age 1.9 years
Type internet

Technical Details

Classification Payload
Mass 730.00 kg
Dry Mass 700.00 kg
Total Mass 730.00 kg
Length 0.30 m
Diameter 4.10 m
Span 29.00 m
Shape Box + pan
Manufacturer SPXS
Bus Type Starlink V2M
Phase Status In Orbit
Owner/State SPXS/US

Most Searched